Red Bluff, CA

12:38 PM PST on November 22, 2019 (GMT -0800)
Red Bluff Municipal

Weather History for KRBL - September, 2019

Change the Weather History Date:

Wednesday, September 18, 2019

  Actual Average Record
Temperature  
Mean Temperature 66 °F -  
Max Temperature 75 °F 87 °F 106 °F (2000)
Min Temperature 55 °F 59 °F 47 °F (1989)
Cooling Degree Days 1    
Growing Degree Days 16 (Base 50)    
Moisture  
Dew Point 53 °F    
Average Humidity 71    
Maximum Humidity 90    
Minimum Humidity 41    
Precipitation  
Precipitation 0.08 in - - ()
Sea Level Pressure  
Sea Level Pressure 29.90 in    
Wind  
Wind Speed 8 mph (South)    
Max Wind Speed 22 mph    
Max Gust Speed 31 mph    
Visibility 9 miles    
Events Rain , Thunderstorm    
Averages and records for this station are not official NWS values.
T = Trace of Precipitation, MM = Missing Value Source: NWS Daily Summary

Daily Weather History Graph

Daily Weather History Graph

Search for Another Location

Airport or City:

Astronomy

Sep. 18, 2019 Rise Set
Actual Time 6:52 AM PDT 7:12 PM PDT
Civil Twilight 6:25 AM PDT 7:40 PM PDT
Nautical Twilight 5:53 AM PDT 8:11 PM PDT
Astronomical Twilight 5:20 AM PDT 8:44 PM PDT
Moon 9:49 PM PDT (9/18) 11:01 AM PDT (9/18)
Length of Visible Light 13h 14m
Length of Day
12h 20m
Waning Gibbous, 82% of the Moon is Illuminated
Sep 18
Waning Gibbous
Sep 21
Last Quarter
Sep 28
New
Oct 5
First Quarter
Oct 13
Full

Hourly Weather History & Observations

Time (PDT) Temp. Dew Point Humidity Pressure Visibility Wind Dir Wind Speed Gust Speed Precip Events Conditions
12:54 AM 68.0 °F 45.0 °F 43% 29.84 in 10.0 mi South 11.5 mph - N/A   Mostly Cloudy
1:54 AM 66.0 °F 48.9 °F 54% 29.87 in 10.0 mi SW 6.9 mph - N/A   Overcast
2:54 AM 64.9 °F 50.0 °F 58% 29.88 in 10.0 mi South 9.2 mph - N/A   Overcast
3:54 AM 63.0 °F 52.0 °F 67% 29.87 in 7.0 mi Calm Calm - 0.00 in Rain Light Rain
4:54 AM 60.1 °F 55.0 °F 83% 29.88 in 5.0 mi Variable 3.5 mph - 0.05 in Rain Rain
5:54 AM 60.1 °F 55.0 °F 83% 29.87 in 10.0 mi SE 8.1 mph - 0.01 in   Mostly Cloudy
6:42 AM 59.0 °F 55.0 °F 87% 29.90 in 10.0 mi West 4.6 mph - N/A   Mostly Cloudy
6:54 AM 60.1 °F 55.0 °F 83% 29.89 in 10.0 mi SW 4.6 mph - N/A   Overcast
7:10 AM 60.1 °F 55.9 °F 86% 29.91 in 10.0 mi Calm Calm - N/A   Overcast
7:43 AM 61.0 °F 55.9 °F 83% 29.92 in 10.0 mi SSW 6.9 mph - N/A   Overcast
7:54 AM 61.0 °F 55.9 °F 83% 29.91 in 10.0 mi South 6.9 mph - N/A   Overcast
8:54 AM 61.0 °F 55.9 °F 83% 29.92 in 10.0 mi South 9.2 mph - N/A   Overcast
9:35 AM 63.0 °F 55.9 °F 78% 29.92 in 10.0 mi South 15.0 mph - N/A   Scattered Clouds
9:54 AM 64.9 °F 55.0 °F 70% 29.92 in 10.0 mi South 13.8 mph - N/A   Clear
10:17 AM 66.0 °F 55.0 °F 68% 29.93 in 10.0 mi SSE 13.8 mph - N/A   Mostly Cloudy
10:54 AM 66.9 °F 55.0 °F 66% 29.92 in 10.0 mi SSE 10.4 mph - N/A   Mostly Cloudy
11:07 AM 66.9 °F 55.0 °F 66% 29.93 in 10.0 mi South 8.1 mph - N/A   Scattered Clouds
11:54 AM 69.1 °F 54.0 °F 58% 29.92 in 10.0 mi South 11.5 mph - N/A   Scattered Clouds
12:54 PM 71.1 °F 53.1 °F 53% 29.91 in 10.0 mi South 6.9 mph - N/A   Scattered Clouds
1:54 PM 72.0 °F 52.0 °F 49% 29.89 in 10.0 mi SE 6.9 mph - N/A   Overcast
2:54 PM 73.0 °F 50.0 °F 44% 29.87 in 10.0 mi Variable 3.5 mph - N/A   Scattered Clouds
3:32 PM 75.0 °F 50.0 °F 41% 29.87 in 10.0 mi Variable 4.6 mph - N/A Thunderstorm Mostly Cloudy
3:54 PM 73.9 °F 48.9 °F 41% 29.87 in 10.0 mi SW 5.8 mph - N/A Thunderstorm Overcast
4:09 PM 61.0 °F 50.0 °F 67% 29.89 in 7.0 mi WNW 18.4 mph 29.9 mph 0.00 in Rain , Thunderstorm Light Thunderstorms and Rain
4:17 PM 61.0 °F 48.9 °F 64% 29.90 in 6.0 mi NW 21.9 mph 31.1 mph 0.00 in Rain , Thunderstorm Light Thunderstorms and Rain
4:54 PM 62.1 °F 54.0 °F 75% 29.91 in 8.0 mi SSE 5.8 mph - 0.06 in Rain , Thunderstorm Light Thunderstorms and Rain
5:01 PM 62.1 °F 55.0 °F 78% 29.92 in 6.0 mi South 11.5 mph - 0.01 in Rain , Thunderstorm Rain
5:23 PM 61.0 °F 55.0 °F 81% 29.91 in 8.0 mi SE 10.4 mph - 0.04 in Rain Light Rain
5:54 PM 63.0 °F 55.0 °F 75% 29.90 in 10.0 mi ESE 6.9 mph - 0.04 in   Overcast
6:54 PM 62.1 °F 55.0 °F 78% 29.91 in 10.0 mi North 3.5 mph - N/A   Mostly Cloudy
7:54 PM 59.0 °F 54.0 °F 83% 29.91 in 10.0 mi WNW 4.6 mph - N/A   Clear
8:54 PM 57.9 °F 54.0 °F 87% 29.91 in 10.0 mi West 4.6 mph - N/A   Clear
9:54 PM 57.0 °F 54.0 °F 89% 29.92 in 10.0 mi North 4.6 mph - N/A   Clear
10:54 PM 57.0 °F 53.1 °F 87% 29.93 in 10.0 mi North 4.6 mph - N/A   Clear
11:54 PM 55.9 °F 53.1 °F 90% 29.93 in 10.0 mi Calm Calm - N/A   Clear